Location: Seasalter
(51.3333°N, 1.0167°E)
Time: 04:16:40
(UTC+00:00)

Nadezhda 4 Rocket - Visible Passes

Search period start: 16 April 2024 00:00
Search period end: 26 April 2024 00:00
Orbit: 948 x 992 km, 82.9° (Epoch: 15 April)

Date Brightness Start Highest point End Pass type
(mag) Time Alt. Az. Time Alt. Az. Time Alt. Az.
16 Apr 5.9 00:48:55 13° ESE 00:52:08 20° E 00:56:22 10° NE visible
16 Apr 3.9 02:33:29 30° SSW 02:36:40 82° W 02:42:49 10° N visible
16 Apr 5.5 04:18:57 10° W 04:22:59 18° WNW 04:27:02 10° NNW visible
17 Apr 5.3 01:12:44 22° SE 01:15:36 32° E 01:20:55 10° NNE visible
17 Apr 4.2 02:57:19 26° SW 03:00:38 51° WNW 03:06:36 10° N visible
18 Apr 4.5 01:36:33 31° SSE 01:39:12 52° E 01:45:07 10° NNE visible
18 Apr 4.8 03:21:07 18° WSW 03:24:45 33° WNW 03:30:14 10° N visible
19 Apr 6.1 00:15:47 12° ESE 00:18:39 16° ENE 00:22:10 10° NE visible
19 Apr 3.9 02:00:21 37° S 02:02:58 83° E 02:09:07 10° NNE visible
19 Apr 5.4 03:44:54 11° WSW 03:49:03 21° WNW 03:53:38 10° NNW visible
20 Apr 5.5 00:39:33 20° ESE 00:42:04 26° E 00:46:59 10° NNE visible
20 Apr 4.0 02:24:07 33° SW 02:26:52 63° WNW 02:32:58 10° N visible
20 Apr 5.8 04:10:30 10° W 04:13:32 14° NW 04:16:34 10° NNW visible
21 Apr 4.8 01:03:20 30° SE 01:05:36 42° E 01:11:18 10° NNE visible
21 Apr 4.6 02:47:53 24° WSW 02:50:56 39° WNW 02:56:40 10° N visible
21 Apr 6.2 23:42:41 10° E 23:45:12 13° ENE 23:47:43 10° NE visible
22 Apr 4.1 01:27:04 40° SSE 01:29:18 68° E 01:35:23 10° NNE visible
22 Apr 5.2 03:11:37 16° WSW 03:15:08 26° WNW 03:20:10 10° N visible
23 Apr 5.7 00:06:15 17° ESE 00:08:32 21° E 00:12:58 10° NNE visible
23 Apr 3.9 01:50:49 40° SSW 01:53:08 77° WNW 01:59:17 10° N visible
23 Apr 5.7 03:35:45 10° W 03:39:33 17° WNW 03:43:22 10° NNW visible
24 Apr 5.1 00:29:58 27° ESE 00:32:00 34° E 00:37:26 10° NNE visible
24 Apr 4.4 02:14:31 31° SW 02:17:07 48° WNW 02:23:03 10° N visible
24 Apr 6.0 04:02:55 10° WNW 04:04:08 11° NW 04:05:21 10° NW visible
25 Apr 4.3 00:53:41 39° SE 00:55:38 55° E 01:01:37 10° NNE visible
25 Apr 5.0 02:38:14 20° WSW 02:41:16 31° WNW 02:46:39 10° N visible
25 Apr 5.8 23:32:49 14° ESE 23:35:02 17° ENE 23:38:50 10° NE visible
